When you browse on this site, cookies collect data to enhance your experience and personalize the content and advertising you see.
Visit our Privacy Policy to learn more. By continuing to use the site, you agree to this use of cookies and data.
  • In Lithuania
  • List of Countries
  • For 7 days
  • Water Temperature
  • Satellite Maps
  • Weather Map
  • Weather Widgets
  • user-avatar
    Login

    Hourly Weather Shkoder

    Today, 20 February, Wednesday

    Time Temperature Precipitation Wind Pressure Humidity
    00:00 +8°C° 0 mm 1 mps 743 mmHg 73%
    01:00 +8°C° 0 mm 1 mps 743 mmHg 71%
    02:00 +7°C° 0 mm 1 mps 743 mmHg 70%
    03:00 +7°C° 0 mm 1 mps 743 mmHg 69%
    04:00 +7°C° 0 mm 1 mps 743 mmHg 68%
    05:00 +7°C° 0 mm 1 mps 743 mmHg 67%
    06:00 +7°C° 0 mm 1 mps 743 mmHg 67%
    07:00 +7°C° 0 mm 1 mps 744 mmHg 66%
    08:00 +9°C° 0 mm 1 mps 744 mmHg 61%
    09:00 +10°C° 0 mm 1 mps 744 mmHg 57%
    10:00 +11°C° 0 mm 0 mps 744 mmHg 53%
    11:00 +13°C° 0 mm 1 mps 744 mmHg 52%
    12:00 +14°C° 0 mm 1 mps 744 mmHg 51%
    13:00 +14°C° 0 mm 1 mps 744 mmHg 50%
    14:00 +14°C° 0 mm 1 mps 744 mmHg 54%
    15:00 +14°C° 0 mm 1 mps 743 mmHg 57%
    16:00 +14°C° 0 mm 1 mps 743 mmHg 60%
    17:00 +12°C° 0 mm 1 mps 744 mmHg 66%
    18:00 +11°C° 0 mm 1 mps 744 mmHg 71%
    19:00 +10°C° 0 mm 1 mps 744 mmHg 77%
    20:00 +10°C° 0 mm 1 mps 745 mmHg 74%
    21:00 +10°C° 0 mm 1 mps 745 mmHg 72%
    22:00 +8°C° 0 mm 2 mps 745 mmHg 70%
    23:00 +8°C° 0 mm 2 mps 746 mmHg 68%

    Tomorrow, 21 February, Thursday

    Time Temperature Precipitation Wind Pressure Humidity
    00:00 +8°C° 0 mm 2 mps 746 mmHg 67%
    01:00 +8°C° 0 mm 2 mps 746 mmHg 66%
    02:00 +7°C° 0 mm 2 mps 746 mmHg 67%
    03:00 +7°C° 0 mm 2 mps 746 mmHg 68%
    04:00 +7°C° 0 mm 2 mps 746 mmHg 68%
    05:00 +7°C° 0 mm 2 mps 746 mmHg 70%
    06:00 +7°C° 0 mm 2 mps 746 mmHg 72%
    07:00 +5°C° 0 mm 3 mps 746 mmHg 73%
    08:00 +8°C° 0 mm 2 mps 747 mmHg 67%
    09:00 +10°C° 0 mm 2 mps 747 mmHg 60%
    10:00 +13°C° 0 mm 2 mps 747 mmHg 54%
    11:00 +14°C° 0 mm 2 mps 747 mmHg 50%
    12:00 +15°C° 0 mm 2 mps 747 mmHg 45%
    13:00 +15°C° 0 mm 1 mps 746 mmHg 41%
    14:00 +15°C° 0 mm 1 mps 746 mmHg 42%
    15:00 +15°C° 0 mm 1 mps 746 mmHg 43%
    16:00 +15°C° 0 mm 1 mps 746 mmHg 44%
    17:00 +13°C° 0 mm 1 mps 746 mmHg 49%
    18:00 +12°C° 0 mm 2 mps 746 mmHg 54%
    19:00 +10°C° 0 mm 2 mps 747 mmHg 59%
    20:00 +9°C° 0 mm 2 mps 747 mmHg 60%
    21:00 +9°C° 0 mm 2 mps 747 mmHg 60%
    22:00 +8°C° 0 mm 2 mps 747 mmHg 60%
    23:00 +8°C° 0 mm 2 mps 747 mmHg 59%

    Day after tomorrow, 22 February, Friday

    Time Temperature Precipitation Wind Pressure Humidity
    00:00 +8°C° 0 mm 2 mps 746 mmHg 59%
    01:00 +8°C° 0 mm 2 mps 746 mmHg 59%
    02:00 +8°C° 0 mm 1 mps 746 mmHg 58%
    03:00 +8°C° 0 mm 1 mps 746 mmHg 58%
    04:00 +8°C° 0 mm 1 mps 745 mmHg 58%
    05:00 +8°C° 0 mm 1 mps 745 mmHg 58%
    06:00 +7°C° 0 mm 2 mps 745 mmHg 58%
    07:00 +8°C° 0 mm 2 mps 745 mmHg 58%
    08:00 +10°C° 0 mm 1 mps 744 mmHg 54%
    09:00 +12°C° 0 mm 1 mps 744 mmHg 49%
    10:00 +13°C° 0 mm 1 mps 743 mmHg 44%
    11:00 +14°C° 0 mm 1 mps 743 mmHg 45%
    12:00 +14°C° 0 mm 2 mps 742 mmHg 45%
    13:00 +14°C° 0 mm 2 mps 742 mmHg 45%
    14:00 +14°C° 0.1 mm 2 mps 742 mmHg 49%
    15:00 +14°C° 0.1 mm 2 mps 741 mmHg 52%
    16:00 +13°C° 0.1 mm 2 mps 741 mmHg 55%
    17:00 +12°C° 0.1 mm 2 mps 741 mmHg 60%
    18:00 +10°C° 0.1 mm 2 mps 741 mmHg 64%
    19:00 +9°C° 0.1 mm 2 mps 741 mmHg 68%
    20:00 +9°C° 0 mm 2 mps 741 mmHg 69%
    21:00 +8°C° 0 mm 2 mps 741 mmHg 70%
    22:00 +8°C° 0 mm 2 mps 741 mmHg 71%
    23:00 +8°C° 0.2 mm 2 mps 741 mmHg 70%

    23 February, Saturday

    Time Temperature Precipitation Wind Pressure Humidity
    00:00 +8°C° 0.2 mm 3 mps 741 mmHg 70%
    01:00 +8°C° 0.2 mm 3 mps 742 mmHg 69%
    02:00 +6°C° 0 mm 4 mps 742 mmHg 65%
    03:00 +3°C° 0 mm 5 mps 742 mmHg 60%
    04:00 +2°C° 0 mm 5 mps 742 mmHg 55%
    05:00 +1°C° 0 mm 5 mps 742 mmHg 53%
    06:00 -2°C° 0 mm 6 mps 743 mmHg 50%
    07:00 -3°C° 0 mm 6 mps 743 mmHg 47%
    08:00 -2°C° 0 mm 6 mps 743 mmHg 43%
    09:00 -2°C° 0 mm 7 mps 743 mmHg 39%
    10:00 -1°C° 0 mm 8 mps 743 mmHg 35%
    11:00 -1°C° 0 mm 8 mps 743 mmHg 35%
    12:00 -1°C° 0 mm 9 mps 743 mmHg 35%
    13:00 -1°C° 0 mm 9 mps 743 mmHg 35%
    14:00 -1°C° 0 mm 9 mps 743 mmHg 37%
    15:00 -1°C° 0 mm 9 mps 743 mmHg 38%
    16:00 -2°C° 0 mm 10 mps 743 mmHg 40%
    17:00 -3°C° 0 mm 9 mps 744 mmHg 42%
    18:00 -4°C° 0 mm 8 mps 744 mmHg 44%
    19:00 -5°C° 0 mm 8 mps 745 mmHg 46%
    20:00 -5°C° 0 mm 8 mps 745 mmHg 45%
    21:00 -4°C° 0 mm 7 mps 746 mmHg 44%
    22:00 -6°C° 0 mm 7 mps 746 mmHg 43%
    23:00 -6°C° 0 mm 7 mps 746 mmHg 43%

    24 February, Sunday

    Time Temperature Precipitation Wind Pressure Humidity
    00:00 -5°C° 0 mm 6 mps 746 mmHg 43%
    01:00 -5°C° 0 mm 6 mps 746 mmHg 43%
    02:00 -6°C° 0 mm 6 mps 746 mmHg 43%
    03:00 -6°C° 0 mm 6 mps 746 mmHg 43%
    04:00 -6°C° 0 mm 6 mps 746 mmHg 44%
    05:00 -6°C° 0 mm 6 mps 746 mmHg 43%
    06:00 -6°C° 0 mm 6 mps 746 mmHg 43%
    07:00 -6°C° 0 mm 5 mps 746 mmHg 42%
    08:00 -5°C° 0 mm 6 mps 746 mmHg 38%
    09:00 -4°C° 0 mm 6 mps 746 mmHg 34%
    10:00 -3°C° 0 mm 7 mps 746 mmHg 30%
    11:00 -2°C° 0 mm 7 mps 745 mmHg 29%
    12:00 -1°C° 0 mm 7 mps 745 mmHg 28%
    13:00 -1°C° 0 mm 8 mps 744 mmHg 27%
    14:00 -1°C° 0 mm 7 mps 744 mmHg 29%
    15:00 -1°C° 0 mm 7 mps 744 mmHg 31%
    16:00 -1°C° 0 mm 7 mps 744 mmHg 32%
    17:00 -2°C° 0 mm 7 mps 744 mmHg 35%
    18:00 -3°C° 0 mm 7 mps 745 mmHg 38%
    19:00 -4°C° 0 mm 6 mps 745 mmHg 41%
    20:00 -4°C° 0 mm 6 mps 745 mmHg 42%
    21:00 -4°C° 0 mm 6 mps 745 mmHg 42%
    22:00 -4°C° 0 mm 7 mps 745 mmHg 43%
    23:00 -4°C° 0 mm 6 mps 745 mmHg 44%

    25 February, Monday

    Time Temperature Precipitation Wind Pressure Humidity
    00:00 -4°C° 0 mm 6 mps 745 mmHg 44%
    01:00 -4°C° 0 mm 6 mps 745 mmHg 45%
    02:00 -4°C° 0 mm 6 mps 745 mmHg 45%
    03:00 -4°C° 0 mm 6 mps 745 mmHg 46%
    04:00 -4°C° 0 mm 6 mps 745 mmHg 46%
    05:00 -4°C° 0 mm 6 mps 745 mmHg 46%
    06:00 -4°C° 0 mm 5 mps 744 mmHg 45%
    07:00 -4°C° 0 mm 5 mps 744 mmHg 45%
    08:00 -3°C° 0 mm 6 mps 744 mmHg 40%
    09:00 -1°C° 0 mm 6 mps 745 mmHg 36%
    10:00 0°C° 0 mm 7 mps 745 mmHg 32%
    11:00 +2°C° 0 mm 7 mps 744 mmHg 30%
    12:00 +3°C° 0 mm 7 mps 744 mmHg 29%
    13:00 +4°C° 0 mm 7 mps 743 mmHg 27%
    14:00 +4°C° 0 mm 7 mps 743 mmHg 29%
    15:00 +4°C° 0 mm 6 mps 743 mmHg 31%
    16:00 +4°C° 0 mm 6 mps 742 mmHg 32%
    17:00 +2°C° 0 mm 6 mps 743 mmHg 36%
    18:00 +1°C° 0 mm 5 mps 743 mmHg 40%
    19:00 0°C° 0 mm 5 mps 744 mmHg 43%
    20:00 -1°C° 0 mm 4 mps 744 mmHg 43%
    21:00 -1°C° 0 mm 4 mps 744 mmHg 42%
    22:00 -1°C° 0 mm 4 mps 745 mmHg 42%
    23:00 -1°C° 0 mm 4 mps 745 mmHg 44%
    Show more